www.pogodaiklimat.ru

Погода и климат >> Архив погоды >> Россия >> Иркутская область >> Тулун


ПОГОДА в Тулуне

  • Прогноз погоды в Тулуне
  • Монитор погоды в Тулуне
  • Климат города

АРХИВ ПОГОДЫ в Тулуне

Время (UTC), дата Ветер
(напр.,м/с)
 
Видим.   Явления Облачность Т
(С)
Тd
(С)
f
(%)
Тe
(С)
Тes
(С)
Комфортность P
(гПа)
Po
(гПа)
Тmin
(С)
Tmax
(С)
R
(мм)
R24
(мм)
S
(см)
18 16.06 СЗ 1 н/о 9/0
[Ac trans Ci sp]
+11.6 +9.0 84 +11 +11 1014.0 953.0
21 16.06 ЮЗ 1 20 км 9/3 1000 м
[Sc diur, vesp Ac trans]
+10.2 +9.1 93 +10 +10 1014.6 953.3
00 17.06 З 1 20 км 9/8 600 м
[Cb calv Ac trans]
+11.7 +9.5 86 +12 +12 1014.9 953.9 +10.2
03 17.06 З 2 20 км 9/3 600 м
[Cb calv Ac trans]
+16.7 +10.6 67 +17 +21 1014.0 954.1
06 17.06 З 2 20 км 8/5 600 м
[Cb calv Ac cast]
+18.0 +9.3 57 +19 +23 1012.7 953.1
09 17.06 СЗ 2 20 км 5/3 600 м
[Cu med, cong Ac trans]
+19.1 +8.2 49 +20 +25 1012.1 952.7
12 17.06 С 2 20 км 1/0
[Ac trans]
+19.8 +7.5 45 +21 +22 комфорт 1011.7 952.5 +20.1
15 17.06 штиль 0 20 км 3/0
[Ac trans Ci sp]
+14.1 +8.3 68 +14 +14 1013.9 953.4
18 17.06 штиль 0 н/о ясно +9.8 +8.3 90 +9 +9 1015.4 953.9
21 17.06 В 1 20 км ясно +7.1 +6.5 96 +6 +6 1016.4 954.3
00 18.06 З 1 20 км ясно +14.3 +9.9 75 +15 +19 1015.3 954.8 +7.0
03 18.06 Ю 2 20 км 3/3 600 м
[Cu hum]
+20.4 +8.6 47 +22 +31 комфорт 1013.3 954.2
06 18.06 ЮВ 4 20 км 5/4 600 м
[Cu hum Ci fib]
+23.3 +8.9 40 +25 +31 комфорт 1011.5 953.0
09 18.06 ЮВ 4 20 км 3/3 600 м
[Cu hum]
+24.3 +6.8 33 +24 +29 комфорт 1009.9 951.6
12 18.06 В 4 20 км 1/0
[Ci sp]
+23.3 +7.1 35 +24 +25 комфорт 1009.5 951.1 +24.6
15 18.06 В 3 20 км 3/0
[Ac trans Ci sp]
+18.2 +7.7 50 +18 +18 1010.3 950.8
18 18.06 В 4 н/о 3/0
[Ac trans Ci sp]
+13.4 +7.7 68 +12 +12 1009.9 949.6
21 18.06 В 4 20 км 9/0
[Ac trans Ci sp]
+12.7 +7.3 70 +11 +11 1008.8 948.4
00 19.06 В 5 20 км 9/0
[Ac trans Ci sp]
+18.7 +8.2 50 +19 +20 1006.6 947.5 +12.0
03 19.06 ЮВ 7-13
{15}
20 км 6/1 600 м
[Cu hum Ac trans]
+23.1 +7.8 37 +24 +26 комфорт 1004.2 946.1
06 19.06 ЮВ 6-10
{13}
20 км 9/0
[Ac trans Ci sp]
+26.2 +8.9 34 +27 +30 жарко 1002.4 945.0
09 19.06 ЮВ 3
{10}
20 км 9/0
[Ac trans Ci sp]
+27.1 +9.5 33 +27 +31 жарко 1001.6 944.4
12 19.06 ЮВ 1 20 км 9/5 600 м
[Cb calv Ac trans Ci sp]
+25.0 +11.2 42 +26 +27 жарко 1001.5 943.9 +28.0
15 19.06 СВ 1 20 км 9/4 1000 м
[Sc Ac trans Ci sp]
+19.8 +12.1 61 +22 +22 комфорт 1002.2 943.6
18 19.06 штиль 0 н/о 9/3 600 м
[Sc Ac trans]
+18.9 +12.6 67 +20 +20 1001.3 942.6
21 19.06 штиль 0 20 км 9/4 600 м
[Sc Ac trans Ci sp]
+17.2 +13.5 79 +17 +17 1001.4 942.4
00 20.06 ЮВ 2 20 км 9/6 600 м
[Cb calv Ac trans Ci sp]
+19.9 +11.9 60 +22 +23 комфорт 1001.4 942.8 +17.2
03 20.06 Ю 2 20 км 9/3 600 м
[Cu med, cong Ac trans Ci sp]
+24.4 +14.7 55 +27 +32 жарко 1000.5 943.0
06 20.06 СЗ 2 20 км 9/4 600 м
[Cb calv Ac trans Ci sp]
+28.1 +12.4 38 +29 +35 жарко 999.6 942.8
09 20.06 З 3 20 км 9/4 600 м
[Cb calv Ac trans Ci sp]
+28.8 +10.8 33 +29 +32 жарко 999.2 942.5
12 20.06 З 2 20 км 9/4 600 м
[Cb calv Ac trans]
+21.6 +13.2 59 +24 +25 комфорт 1002.7 944.4 +29.5
15 20.06 ЮЗ 2 20 км гроза, ливневой дождь 10/10 600 м
[Cb calv]
+16.5 +15.9 96 +17 +17 1005.0 945.7
18 20.06 З 1 н/о {гроза, ливн. осадки} 3/0
[Ac trans]
+15.5 +14.9 96 +16 +16 1005.7 946.1
21 20.06 ЮЗ 1 20 км 9/0
[Ac trans Ci sp]
+14.5 +14.1 97 +15 +15 1006.3 946.5
00 21.06 З 1 20 км 9/0
[Ac trans Ci sp]
+18.1 +15.6 85 +19 +23 1006.6 947.5 +14.4 16
03 21.06 С 1 20 км 8/0
[Ci sp]
+24.0 +13.9 53 +26 +39 жарко 1005.4 947.5
06 21.06 СВ 2 20 км 8/3 600 м
[Cu med, cong Ci sp]
+26.1 +12.6 43 +28 +37 жарко 1003.9 946.4
09 21.06 В 2 20 км 8/4 600 м
[Cu med, cong Ci sp]
+27.1 +12.1 39 +28 +33 жарко 1002.4 945.2
12 21.06 С 2 20 км 9/4 600 м
[Cb calv Ac trans Ci sp]
+24.4 +13.6 51 +27 +27 жарко 1003.4 945.7 +27.6
15 21.06 СЗ 2 20 км 9/5 600 м
[Cb calv Ac trans]
+20.2 +14.0 68 +23 +23 комфорт 1005.6 947.0
18 21.06 СЗ 2 н/о слабый ливневой дождь 10/6 600 м
[Cb calv Ac As]
+16.6 +13.3 81 +17 +17 1008.4 948.9
21 21.06 С 1 20 км слабый ливневой дождь 10/10 600 м
[Cb calv]
+12.8 +11.9 94 +13 +13 1009.9 949.4
00 22.06 ЮЗ 1 20 км {ливн. осадки} 9/8 600 м
[Cb calv Ac trans]
+13.3 +12.8 97 +13 +14 1011.0 950.6 +12.7 11
03 22.06 З 1 20 км 9/3 600 м
[Sc Ac trans]
+16.4 +14.3 87 +17 +22 1010.5 950.9
06 22.06 З 2 20 км 10/3 600 м
[Sc diur, vesp Ac cast Cs]
+20.6 +13.1 62 +24 +29 комфорт 1009.2 950.4
09 22.06 З 2 20 км 9/4 600 м
[Cb calv Ci sp]
+23.4 +9.5 41 +25 +29 комфорт 1007.6 949.3
12 22.06 СЗ 1 20 км 4/3 600 м
[Cu med, cong Ci sp]
+22.9 +9.3 42 +24 +25 комфорт 1008.0 949.7 +24.0
15 22.06 С 2 20 км 4/1 600 м
[Sc diur, vesp Ac trans Ci sp]
+17.8 +10.3 61 +18 +18 1010.3 950.8
18 22.06 штиль 0 н/о 3/0
[Ac lent Ci sp]
+12.9 +10.4 85 +12 +12 1011.7 951.2
21 22.06 штиль 0 20 км 3/3 600 м
[Sc]
+9.5 +8.9 96 +9 +9 1012.3 951.0
00 23.06 З 1 20 км 3/3 600 м
[Sc]
+16.2 +10.5 69 +17 +20 1011.5 951.6 +9.5
03 23.06 СЗ 2 20 км 3/3 600 м
[Cu med, cong]
+21.0 +11.5 55 +24 +33 комфорт 1009.8 951.0
06 23.06 С 2 20 км 8/8 600 м
[Cu med, cong]
+23.5 +9.7 42 +25 +28 комфорт 1008.5 950.2
09 23.06 С 3 20 км 6/6 600 м
[Cu med, cong]
+24.2 +9.0 38 +25 +28 комфорт 1007.5 949.4
12 23.06 С 3 20 км 1/1 600 м
[Sc diur, vesp]
+23.2 +9.2 41 +25 +26 комфорт 1007.6 949.3 +24.5
15 23.06 СВ 1 20 км 1/0
[Ac trans]
+15.2 +11.5 79 +16 +16 1009.6 949.7

 

Местоположение метеостанции Тулун (Иркутская область, Россия): широта 54.60 долгота 100.60 высота над уровнем моря 522 м.

В архиве по умолчанию представлена погода в Тулуне за последнюю неделю. Архивные данные за месяц целиком и за предыдущие месяцы, начиная с января 2011 года, Вы можете получить, выбрав интересующий диапазон дат из раскрывающегося списка и нажав кнопку "Ввод!".


*Определитесь, кто Вы:
робот инопланетянин человек

Внимание! Время в таблицах - всемирное. Для получения местного времени необходимо прибавить поправку, которая в Тулуне равна 8 ч.

Смотрите также архив погоды в соседних городах и на ближайших метеорологических станциях:

Погода в Тангуе (Иркутская область, Россия) (90 км)
Погода в Нижнеудинске (Иркутская область, Россия) (106 км)
Погода в Зиме (Иркутская область, Россия) (118 км)
Погода в Хадаме (Иркутская область, Россия) (137 км)
Погода в Калтуке (Иркутская область, Россия) (139 км)
Погода в Сараме (Иркутская область, Россия) (144 км)
Погода в Балаганске (Иркутская область, Россия) (169 км)
Погода в Заларях (Иркутская область, Россия) (170 км)
Погода в Нерое (Иркутская область, Россия) (179 км)
Погода в Алыгджере (Иркутская область, Россия) (189 км)

Пояснения к столбцам:

Ветер - указаны скорость ветра в м/с - средняя за 10 мин, порывы в срок и между сроками (в фигурных скобках) и направление, откуда дует ветер: С - северный, СВ - северо-восточный, В - восточный, ЮВ - юго-восточный, Ю - южный, ЮЗ - юго-западный, З - западный, СЗ - северо-западный.
Видимость - горизонтальная дальность видимости в метрах или километрах. При видимости от 1 до 10 км при отсутствии осадков обычно наблюдается дымка, при ухудшении видимости до 1 км и менее - туман. В сухую погоду видимость может ухудшаться дымом, пылью или мглою.
Явления - указаны атмосферные явления, наблюдавшиеся в срок или в последний час перед сроком; фигурными скобками обозначены явления, наблюдавшиеся между сроками (за 1-3 часа до срока); квадратными скобками обозначены град или гололедные отложения с указанием их диаметра в мм.
Облачность - указаны через наклонную черту общая и нижняя облачность в баллах и высота нижней границы облаков в метрах; квадратными скобками обозначены формы облаков: Ci - перистые, Cs - перисто-слоистые, Cc - перисто-кучевые, Ac - высококучевые, As - высокослоистые, Sc - слоисто-кучевые, Ns - слоисто-дождевые, Cu - кучевые, Cb - кучево-дождевые. Подробнее классификацию облаков см. в Атласе облаков (PDF).
T - Температура воздуха - температура, измеренная на высоте 2 м над землей.
Td - Температура точки росы - температура, при понижении до которой содержащийся в воздухе водяной пар достигнет насыщения.
f - Относительная влажность воздуха - влажноcть воздуха, измеренная на высоте 2 м над землей.
Te - Эффективная температура - температура, которую ощущает одетый по сезону человек в тени. Характеристика душности погоды. При расчете учитывается влияние влажности воздуха и скорости ветра на теплоощущения человека.
Tes - Эффективная температура на солнце - температура, которую ощущает человек, с поправкой на солнечный нагрев. Характеристика знойности погоды. Зависит от высоты солнца над горизонтом, облачности и скорости ветра. Ночью, в пасмурную погоду, а также при ветре 12 м/с и более поправка равна нулю.
P - Атмосферное давление - приведенное к уровню моря атмосферное давление.
Po - Атмосферное давление - измеренное на уровне метеостанции атмосферное давление.
Tmin - Минимальная температура - минимум температуры воздуха на высоте 2 м над землей.
Tmax - Максимальная температура - максимум температуры воздуха на высоте 2 м над землей.
R - Количество осадков - Количество выпавших осадков за период времени, мм. При наведении курсора мыши на число - период времени, за который выпало указанное количество осадков.
R24 - Количество осадков - Количество выпавших осадков за 24 часа, мм.
S - Снежный покров - Высота снежного покрова, см. При наведении курсора мыши на число - состояние снежного покрова и степень покрытия местности в баллах.